CZ-6A DEB, 56613

Orbit data source: Space-Track

CZ-6A DEB, 56613 is space debris in SSO originally from a launch on Fri, 11 Nov 2022 UTC launched from the Taiyaun Space Center, China (TSC). Debris objects in space refer to the collection of defunct objects orbiting the Earth. Examples of debris include non-operational satellites, rocket bodies, and fragments generated from explosions, collisions, or faulty payload assembly.

Loading next visibility...
Identifier
56613, 2022-151AEM
Orbit
SSO
Country
Flag of CNCN / PRC
Related business
Manufacturer
SAST
Mission
Spacecraft
Bus & Motor
Unknown
Mass
Unknown
Launch date (UTC)
2022-11-11 (4 years ago)
Launch vehicle
Unknown
Launch site
Taiyaun Space Center, China (TSC)
Object type
Payload
Rocket body
Debris
Shape & HBR
Unknown shape, 0.1 m
Radar Cross Section
Medium (>0.1 m² and <1 m²)

Expand to show TLE details & history
Last TLE update: 21 hours ago

TLE from 21 hours ago
0 CZ-6A DEB
1 56613U 22151AEM 26264.03658165  .00000607  00000-0  29100-3 0  9994
2 56613  98.7990 289.0546 0003279  35.3054 324.8341 14.22715391181853
Epoch: 2026-09-21T00:52Z
TLE epoch observation values (Epoch: 2026-09-21T00:52:40.654Z)
Latitude
0.00004°
Longitude
-84.03697°
Altitude
817.171 km
Speed
7.446 km/s
True Right ascension
19h 16m 13s
True Declination
0° 00' 00"
Sunlit
Object was in daylight at epoch
Visualization orbit readout
Latitude
Unknown
Longitude
Unknown
Altitude
Unknown
Speed
Unknown
Apparent Right ascension
Unknown
Apparent Declination
Unknown
Sunlit
N/A
Visualization observer readout
Local Sidereal Time
15:13:09
Azimuth
Unknown
Elevation
Unknown
Doppler factor
Unknown
Orbital elements
Apogee altitude
815.702 km
Perigee altitude
810.985 km
Semi-major axis
7,191.48 km
Eccentricity
0.00033
Inclination
98.799°
RAAN
289.0546°
Arg. of periapsis
35.3054°
True anomaly
324.81245°
Mean anomaly
324.8341°
Eccentric anomaly
324.82328°
Mean motion
3.5589 °/min
Orbital period
101.15 mins
BSTAR
0.000291
Loading maneuver chart data...
Computing Atmospheric mass density...
Loading historical data...
Loading historical data...
Loading historical data...
Loading historical data...
Loading historical data...
Loading historical data...
Loading historical data...

Documentation

Showing up to 5 results
|